EW4907 Weather Reports


Display with metric or nautical units.
time (UTC)temp
F
wind
direction
speed
MPH
gust
MPH
rain 1hr
in
rain 24hr
in
rain mn
in
humidity
%
barometer
mb
20260902191529 93 44 6.0 14.0 0.00 0.00 0.00 45 1012.9
20260902190025 96 127 0.0 3.0 0.00 0.00 0.00 40 1013.1
20260902184523 96 226 5.0 11.0 0.00 0.00 0.00 39 1013.3
20260902183020 97 143 3.0 8.0 0.00 0.00 0.00 42 1013.4
20260902181516 94 248 1.0 10.0 0.00 0.00 0.00 43 1013.8
20260902180020 96 320 4.0 7.0 0.00 0.00 0.00 41 1014.0
20260902174515 93 333 4.0 8.0 0.00 0.00 0.00 44 1014.4
20260902173015 95 264 3.0 6.0 0.00 0.00 0.00 42 1014.7
20260902171511 94 297 2.0 7.0 0.00 0.00 0.00 44 1014.8
20260902170009 93 221 4.0 10.0 0.00 0.00 0.00 46 1015.0
20260902164509 92 153 3.0 12.0 0.00 0.00 0.00 47 1015.1
20260902163005 92 305 4.0 10.0 0.00 0.00 0.00 48 1015.2
20260902161502 90 233 3.0 8.0 0.00 0.00 0.00 51 1015.4
20260902154558 88 236 4.0 8.0 0.00 0.00 0.00 54 1015.3
20260902153055 87 209 2.0 9.0 0.00 0.00 0.00 59 1015.3
20260902151559 86 186 2.0 9.0 0.00 0.00 0.00 62 1015.2
20260902150048 85 234 4.0 7.0 0.00 0.00 0.00 64 1015.4
20260902144545 83 221 2.0 7.0 0.00 0.00 0.00 68 1015.5
20260902143041 82 264 6.0 12.0 0.00 0.00 0.00 68 1015.4
20260902141542 81 231 2.0 7.0 0.00 0.00 0.00 74 1015.4
20260902140042 80 254 4.0 10.0 0.00 0.00 0.00 76 1015.3
20260902134549 79 242 4.0 8.0 0.00 0.00 0.00 78 1015.2
20260902133034 78 225 3.0 8.0 0.00 0.00 0.00 78 1015.1
20260902131544 77 255 3.0 6.0 0.00 0.00 0.00 79 1015.0
20260902130032 77 229 2.0 5.0 0.00 0.00 0.00 79 1014.9
20260902124534 76 245 1.0 3.0 0.00 0.00 0.00 80 1014.8
20260902123029 75 236 2.0 4.0 0.00 0.00 0.00 80 1014.5
20260902121528 75 232 2.0 5.0 0.00 0.00 0.00 80 1014.5
20260902120031 76 228 2.0 4.0 0.00 0.00 0.00 79 1014.5
20260902114527 76 225 1.0 3.0 0.00 0.00 0.00 79 1014.5
20260902113024 76 187 1.0 3.0 0.00 0.00 0.00 78 1014.4
20260902111522 77 248 0.0 4.0 0.00 0.00 0.00 77 1014.4
20260902110021 77 252 0.0 2.0 0.00 0.00 0.00 76 1014.4
20260902104520 77 293 1.0 4.0 0.00 0.00 0.00 76 1014.2
20260902103019 77 236 1.0 7.0 0.00 0.00 0.00 76 1014.1
20260902101519 77 268 2.0 8.0 0.00 0.00 0.00 75 1014.1
20260902100018 77 253 4.0 12.0 0.00 0.00 0.00 76 1014.0
20260902094516 77 248 3.0 8.0 0.00 0.00 0.00 76 1014.0
20260902093014 78 255 3.0 9.0 0.00 0.00 0.00 75 1014.0
20260902091523 78 252 4.0 9.0 0.00 0.00 0.00 75 1014.0
20260902090010 78 242 4.0 11.0 0.00 0.00 0.00 74 1014.2
20260902084510 78 229 4.0 8.0 0.00 0.00 0.00 74 1014.3
20260902083009 78 226 3.0 8.0 0.00 0.00 0.00 73 1014.3
20260902081507 78 224 3.0 6.0 0.00 0.00 0.00 72 1014.5
20260902080006 78 201 3.0 6.0 0.00 0.00 0.00 71 1014.5
20260902074505 79 223 2.0 5.0 0.00 0.00 0.00 71 1014.4
20260902073003 79 196 2.0 5.0 0.00 0.00 0.00 71 1014.5
20260902071503 79 248 4.0 7.0 0.00 0.00 0.00 71 1014.5
20260902070059 79 198 4.0 7.0 0.00 0.00 0.00 72 1014.6
20260902064603 79 198 3.0 7.0 0.00 0.00 0.00 72 1014.7
20260902063059 79 222 2.0 6.0 0.00 0.00 0.00 73 1014.6
20260902061608 79 243 2.0 6.0 0.00 0.00 0.00 73 1014.7
20260902060052 80 214 1.0 5.0 0.00 0.00 0.00 73 1014.7
20260902054552 80 199 3.0 6.0 0.00 0.00 0.00 73 1014.8
20260902053051 80 227 2.0 6.0 0.00 0.00 0.00 72 1014.8
20260902051548 81 167 4.0 8.0 0.00 0.00 0.00 71 1014.8
20260902050048 81 139 2.0 8.0 0.00 0.00 0.00 70 1014.8
20260902044545 82 188 4.0 7.0 0.00 0.00 0.00 68 1014.6
20260902043044 82 165 2.0 5.0 0.00 0.00 0.00 67 1014.6
20260902041546 83 160 2.0 6.0 0.00 0.00 0.00 65 1014.7
20260902040044 83 131 4.0 8.0 0.00 0.00 0.00 64 1014.6
20260902034543 84 207 4.0 8.0 0.00 0.00 0.00 63 1014.4
20260902033042 84 160 2.0 5.0 0.00 0.00 0.00 61 1014.4
20260902031541 84 151 3.0 6.0 0.00 0.00 0.00 61 1014.1
20260902030040 84 125 3.0 6.0 0.00 0.00 0.00 60 1013.9
20260902024539 85 95 2.0 4.0 0.00 0.00 0.00 59 1013.5
20260902023040 86 146 4.0 8.0 0.00 0.00 0.00 57 1013.1
20260902021548 86 86 3.0 9.0 0.00 0.00 0.00 57 1012.9
20260902020038 86 112 2.0 5.0 0.00 0.00 0.00 57 1012.9
20260902014543 87 154 3.0 6.0 0.00 0.00 0.00 56 1012.6
20260902013036 88 131 2.0 5.0 0.00 0.00 0.00 55 1012.6
20260902011547 89 145 2.0 4.0 0.00 0.00 0.00 54 1012.4
20260902010105 89 144 2.0 7.0 0.00 0.00 0.00 53 1012.3
20260902004535 90 142 3.0 9.0 0.00 0.00 0.00 51 1012.3
20260902003035 91 122 3.0 8.0 0.00 0.00 0.00 49 1012.4
20260902001533 91 136 5.0 9.0 0.00 0.00 0.00 49 1012.4
20260902000043 91 85 3.0 10.0 0.00 0.00 0.00 49 1012.4
20260901234532 92 171 4.0 9.0 0.00 0.00 0.00 48 1012.4
20260901233030 93 131 6.0 12.0 0.00 0.00 0.00 46 1012.3
20260901231536 94 98 2.0 9.0 0.00 0.00 0.00 42 1012.2
20260901230034 95 68 2.0 16.0 0.00 0.00 0.00 41 1012.2
20260901224539 96 206 4.0 11.0 0.00 0.00 0.00 39 1012.1
20260901223044 96 160 2.0 9.0 0.00 0.00 0.00 40 1012.1
20260901221525 95 167 1.0 7.0 0.00 0.00 0.00 41 1012.3
20260901220028 94 167 3.0 7.0 0.00 0.00 0.00 42 1012.4
20260901214522 94 94 4.0 8.0 0.00 0.00 0.00 42 1012.5
20260901213029 95 150 4.0 8.0 0.00 0.00 0.00 43 1012.4
20260901211525 94 130 2.0 7.0 0.00 0.00 0.00 44 1012.6
20260901210030 93 103 3.0 8.0 0.00 0.00 0.00 44 1012.9
20260901204522 93 59 4.0 10.0 0.00 0.00 0.00 45 1013.1
20260901203013 94 341 1.0 7.0 0.00 0.00 0.00 45 1013.3
20260901201510 94 22 1.0 11.0 0.00 0.00 0.00 46 1013.6
20260901200029 92 75 3.0 8.0 0.00 0.00 0.00 47 1013.8
20260901194506 94 314 1.0 7.0 0.00 0.00 0.00 46 1014.0
20260901193005 94 146 5.0 9.0 0.00 0.00 0.00 46 1014.1